Time,TemperatureF,DewpointF,PressureIn,WindDirection,WindDirectionDegrees,WindSpeedMPH,WindSpeedGustMPH,Humidity,HourlyPrecipIn,Conditions,Clouds,dailyrainin,SoftwareType,DateUTC
2013-05-08 00:00:00,57.1,51.9,29.69,North,0,0.0,0.0,83,0.00,,,0.00,WUHU216HW,2013-05-08 04:00:00,
2013-05-08 00:01:00,57.1,51.9,29.69,North,0,0.0,0.0,83,0.00,,,0.00,WUHU216HW,2013-05-08 04:01:00,
2013-05-08 00:06:00,57.1,51.9,29.69,North,0,0.0,0.0,83,0.00,,,0.00,WUHU216HW,2013-05-08 04:06:00,
2013-05-08 00:30:00,57.1,51.9,29.69,North,0,0.0,0.0,83,0.00,,,0.00,WUHU216HW,2013-05-08 04:30:00,
2013-05-08 00:35:00,57.1,51.9,29.69,North,0,0.0,0.0,83,0.00,,,0.00,WUHU216HW,2013-05-08 04:35:00,
2013-05-08 01:00:00,56.2,51.0,29.68,North,0,0.0,0.0,83,0.00,,,0.00,WUHU216HW,2013-05-08 05:00:00,
2013-05-08 01:05:00,56.2,51.0,29.68,North,0,0.0,0.0,83,0.00,,,0.00,WUHU216HW,2013-05-08 05:05:00,
2013-05-08 01:30:00,55.4,50.6,29.68,North,0,0.0,0.0,84,0.00,,,0.00,WUHU216HW,2013-05-08 05:30:00,
2013-05-08 01:35:00,55.4,50.6,29.68,North,0,0.0,0.0,84,0.00,,,0.00,WUHU216HW,2013-05-08 05:35:00,
2013-05-08 02:00:00,54.7,50.6,29.67,North,0,0.0,0.0,86,0.00,,,0.00,WUHU216HW,2013-05-08 06:00:00,
2013-05-08 02:05:00,54.7,50.6,29.67,North,0,0.0,0.0,86,0.00,,,0.00,WUHU216HW,2013-05-08 06:05:00,
2013-05-08 02:30:00,54.2,50.0,29.67,North,0,0.0,0.0,86,0.00,,,0.00,WUHU216HW,2013-05-08 06:30:00,
2013-05-08 02:35:00,54.2,50.0,29.67,North,0,0.0,0.0,86,0.00,,,0.00,WUHU216HW,2013-05-08 06:35:00,
2013-05-08 03:00:00,53.6,49.2,29.67,North,0,0.0,0.0,85,0.00,,,0.00,WUHU216HW,2013-05-08 07:00:00,
2013-05-08 03:05:00,53.6,49.2,29.67,North,0,0.0,0.0,85,0.00,,,0.00,WUHU216HW,2013-05-08 07:05:00,
2013-05-08 03:30:00,53.1,49.0,29.67,North,0,0.0,0.0,86,0.00,,,0.00,WUHU216HW,2013-05-08 07:30:00,
2013-05-08 03:35:00,53.1,49.0,29.67,North,0,0.0,0.0,86,0.00,,,0.00,WUHU216HW,2013-05-08 07:35:00,
2013-05-08 04:00:00,52.6,48.4,29.68,North,0,0.0,0.0,86,0.00,,,0.00,WUHU216HW,2013-05-08 08:00:00,
2013-05-08 04:05:00,52.6,48.4,29.68,North,0,0.0,0.0,86,0.00,,,0.00,WUHU216HW,2013-05-08 08:05:00,
2013-05-08 04:30:00,51.8,47.7,29.68,North,0,0.0,0.0,86,0.00,,,0.00,WUHU216HW,2013-05-08 08:30:00,
2013-05-08 04:35:00,51.8,47.7,29.68,North,0,0.0,0.0,86,0.00,,,0.00,WUHU216HW,2013-05-08 08:35:00,
2013-05-08 05:00:00,51.3,47.2,29.68,North,0,0.0,0.0,86,0.00,,,0.00,WUHU216HW,2013-05-08 09:00:00,
2013-05-08 05:05:00,51.3,47.2,29.68,North,0,0.0,0.0,86,0.00,,,0.00,WUHU216HW,2013-05-08 09:05:00,
2013-05-08 05:30:00,50.9,47.2,29.68,North,0,0.0,0.0,87,0.00,,,0.00,WUHU216HW,2013-05-08 09:30:00,
2013-05-08 05:35:00,50.9,47.2,29.68,North,0,0.0,0.0,87,0.00,,,0.00,WUHU216HW,2013-05-08 09:35:00,
2013-05-08 06:00:00,50.6,46.8,29.69,North,0,0.0,0.0,87,0.00,,,0.00,WUHU216HW,2013-05-08 10:00:00,
2013-05-08 06:05:00,50.6,46.8,29.69,North,0,0.0,0.0,87,0.00,,,0.00,WUHU216HW,2013-05-08 10:05:00,
2013-05-08 06:30:00,50.9,47.4,29.70,North,0,0.0,0.0,88,0.00,,,0.00,WUHU216HW,2013-05-08 10:30:00,
2013-05-08 06:35:00,50.9,47.4,29.70,North,0,0.0,0.0,88,0.00,,,0.00,WUHU216HW,2013-05-08 10:35:00,
2013-05-08 07:00:00,51.8,48.7,29.71,North,0,0.0,0.0,89,0.00,,,0.00,WUHU216HW,2013-05-08 11:00:00,
2013-05-08 07:05:00,51.8,48.7,29.71,North,0,0.0,0.0,89,0.00,,,0.00,WUHU216HW,2013-05-08 11:05:00,
2013-05-08 07:30:00,54.7,51.8,29.72,North,0,0.0,0.0,90,0.00,,,0.00,WUHU216HW,2013-05-08 11:30:00,
2013-05-08 07:35:00,54.7,51.8,29.72,North,0,0.0,0.0,90,0.00,,,0.00,WUHU216HW,2013-05-08 11:35:00,
2013-05-08 08:00:00,56.9,53.6,29.73,North,0,0.0,0.0,89,0.00,,,0.00,WUHU216HW,2013-05-08 12:00:00,
2013-05-08 08:05:00,56.9,53.6,29.73,North,0,0.0,0.0,89,0.00,,,0.00,WUHU216HW,2013-05-08 12:05:00,
2013-05-08 08:30:00,59.0,55.8,29.73,North,0,0.0,0.0,89,0.00,,,0.00,WUHU216HW,2013-05-08 12:30:00,
2013-05-08 08:35:00,59.0,55.8,29.73,North,0,0.0,0.0,89,0.00,,,0.00,WUHU216HW,2013-05-08 12:35:00,
2013-05-08 09:00:00,60.8,57.3,29.73,North,0,0.0,0.0,88,0.00,,,0.00,WUHU216HW,2013-05-08 13:00:00,
2013-05-08 09:05:00,60.8,57.3,29.73,North,0,0.0,0.0,88,0.00,,,0.00,WUHU216HW,2013-05-08 13:05:00,
2013-05-08 09:30:00,63.5,59.3,29.72,North,0,0.0,0.0,86,0.00,,,0.00,WUHU216HW,2013-05-08 13:30:00,
2013-05-08 09:35:00,63.5,59.3,29.72,North,0,0.0,0.0,86,0.00,,,0.00,WUHU216HW,2013-05-08 13:35:00,
2013-05-08 10:00:00,68.0,62.4,29.72,North,0,0.0,0.0,82,0.00,,,0.00,WUHU216HW,2013-05-08 14:00:00,
2013-05-08 10:05:00,68.0,62.4,29.72,North,0,0.0,0.0,82,0.00,,,0.00,WUHU216HW,2013-05-08 14:05:00,
2013-05-08 10:30:00,70.0,62.0,29.73,North,0,0.0,0.0,76,0.00,,,0.00,WUHU216HW,2013-05-08 14:30:00,
2013-05-08 10:35:00,70.0,62.0,29.73,North,0,0.0,0.0,76,0.00,,,0.00,WUHU216HW,2013-05-08 14:35:00,
2013-05-08 11:00:00,71.1,62.4,29.73,North,0,0.0,0.0,74,0.00,,,0.00,WUHU216HW,2013-05-08 15:00:00,
2013-05-08 11:05:00,71.1,62.4,29.73,North,0,0.0,0.0,74,0.00,,,0.00,WUHU216HW,2013-05-08 15:05:00,
2013-05-08 11:30:00,71.6,62.6,29.72,North,0,0.0,0.0,73,0.00,,,0.00,WUHU216HW,2013-05-08 15:30:00,
2013-05-08 11:35:00,71.6,62.6,29.72,North,0,0.0,0.0,73,0.00,,,0.00,WUHU216HW,2013-05-08 15:35:00,
2013-05-08 12:00:00,73.3,62.6,29.71,North,0,0.0,0.0,69,0.00,,,0.00,WUHU216HW,2013-05-08 16:00:00,
2013-05-08 12:05:00,73.3,62.6,29.71,North,0,0.0,0.0,69,0.00,,,0.00,WUHU216HW,2013-05-08 16:05:00,
2013-05-08 12:30:00,74.7,61.7,29.69,North,0,0.0,0.0,64,0.00,,,0.00,WUHU216HW,2013-05-08 16:30:00,
2013-05-08 12:35:00,74.7,61.7,29.69,North,0,0.0,0.0,64,0.00,,,0.00,WUHU216HW,2013-05-08 16:35:00,
2013-05-08 13:00:00,75.2,61.7,29.70,North,0,0.0,0.0,63,0.00,,,0.00,WUHU216HW,2013-05-08 17:00:00,
2013-05-08 13:05:00,75.2,61.7,29.70,North,0,0.0,0.0,63,0.00,,,0.00,WUHU216HW,2013-05-08 17:05:00,
2013-05-08 13:30:00,73.1,61.5,29.69,North,0,0.0,0.0,67,0.00,,,0.00,WUHU216HW,2013-05-08 17:30:00,
2013-05-08 13:35:00,73.1,61.5,29.69,North,0,0.0,0.0,67,0.00,,,0.00,WUHU216HW,2013-05-08 17:35:00,
2013-05-08 14:00:00,74.9,62.3,29.69,North,0,0.0,0.0,65,0.00,,,0.00,WUHU216HW,2013-05-08 18:00:00,
2013-05-08 14:05:00,74.9,62.3,29.69,North,0,0.0,0.0,65,0.00,,,0.00,WUHU216HW,2013-05-08 18:05:00,
2013-05-08 14:30:00,76.3,61.9,29.68,North,0,0.0,0.0,61,0.00,,,0.00,WUHU216HW,2013-05-08 18:30:00,
2013-05-08 14:35:00,76.3,61.9,29.68,North,0,0.0,0.0,61,0.00,,,0.00,WUHU216HW,2013-05-08 18:35:00,
2013-05-08 15:00:00,76.0,61.1,29.66,North,0,0.0,0.0,60,0.00,,,0.00,WUHU216HW,2013-05-08 19:00:00,
2013-05-08 15:05:00,76.0,61.1,29.66,North,0,0.0,0.0,60,0.00,,,0.00,WUHU216HW,2013-05-08 19:05:00,
2013-05-08 15:30:00,72.2,59.8,29.66,North,0,0.0,0.0,65,0.00,,,0.00,WUHU216HW,2013-05-08 19:30:00,
2013-05-08 15:35:00,72.2,59.8,29.66,North,0,0.0,0.0,65,0.00,,,0.00,WUHU216HW,2013-05-08 19:35:00,
2013-05-08 16:00:00,70.6,60.3,29.65,North,0,0.0,0.0,70,0.00,,,0.00,WUHU216HW,2013-05-08 20:00:00,
2013-05-08 16:05:00,70.6,60.3,29.65,North,0,0.0,0.0,70,0.00,,,0.00,WUHU216HW,2013-05-08 20:05:00,
2013-05-08 16:30:00,65.9,58.5,29.66,North,0,0.0,0.0,77,0.00,,,0.00,WUHU216HW,2013-05-08 20:30:00,
2013-05-08 16:35:00,65.9,58.5,29.66,North,0,0.0,0.0,77,0.00,,,0.00,WUHU216HW,2013-05-08 20:35:00,
2013-05-08 17:00:00,64.6,59.1,29.65,North,0,0.0,0.0,82,0.00,,,0.00,WUHU216HW,2013-05-08 21:00:00,
2013-05-08 17:05:00,64.6,59.1,29.65,North,0,0.0,0.0,82,0.00,,,0.00,WUHU216HW,2013-05-08 21:05:00,
2013-05-08 17:30:00,64.6,59.1,29.65,North,0,0.0,0.0,82,0.00,,,0.00,WUHU216HW,2013-05-08 21:30:00,
2013-05-08 17:35:00,64.6,59.1,29.65,North,0,0.0,0.0,82,0.00,,,0.00,WUHU216HW,2013-05-08 21:35:00,
2013-05-08 18:00:00,63.0,57.7,29.64,North,0,0.0,0.0,83,0.00,,,0.00,WUHU216HW,2013-05-08 22:00:00,
2013-05-08 18:05:00,63.0,57.7,29.64,North,0,0.0,0.0,83,0.00,,,0.00,WUHU216HW,2013-05-08 22:05:00,
2013-05-08 18:30:00,61.9,56.7,29.63,North,0,0.0,0.0,83,0.00,,,0.00,WUHU216HW,2013-05-08 22:30:00,
2013-05-08 18:35:00,61.9,56.7,29.63,North,0,0.0,0.0,83,0.00,,,0.00,WUHU216HW,2013-05-08 22:35:00,
2013-05-08 19:00:00,60.8,56.3,29.63,North,0,0.0,0.0,85,0.00,,,0.00,WUHU216HW,2013-05-08 23:00:00,
2013-05-08 19:05:00,60.8,56.3,29.63,North,0,0.0,0.0,85,0.00,,,0.00,WUHU216HW,2013-05-08 23:05:00,
2013-05-08 19:30:00,60.3,56.2,29.63,North,0,0.0,0.0,86,0.00,,,0.00,WUHU216HW,2013-05-08 23:30:00,
2013-05-08 19:35:00,60.3,56.2,29.63,North,0,0.0,0.0,86,0.00,,,0.00,WUHU216HW,2013-05-08 23:35:00,
2013-05-08 20:00:00,59.9,56.1,29.62,North,0,0.0,0.0,87,0.00,,,0.00,WUHU216HW,2013-05-09 00:00:00,
2013-05-08 20:05:00,59.9,56.1,29.62,North,0,0.0,0.0,87,0.00,,,0.00,WUHU216HW,2013-05-09 00:05:00,
2013-05-08 20:30:00,59.9,56.4,29.61,North,0,0.0,0.0,88,0.00,,,0.00,WUHU216HW,2013-05-09 00:30:00,
2013-05-08 20:35:00,59.9,56.4,29.61,North,0,0.0,0.0,88,0.00,,,0.00,WUHU216HW,2013-05-09 00:35:00,
2013-05-08 21:00:00,59.8,56.3,29.61,North,0,0.0,0.0,88,0.00,,,0.00,WUHU216HW,2013-05-09 01:00:00,
2013-05-08 21:05:00,59.8,56.3,29.61,North,0,0.0,0.0,88,0.00,,,0.00,WUHU216HW,2013-05-09 01:05:00,
2013-05-08 21:30:00,59.4,55.9,29.61,North,0,0.0,0.0,88,0.00,,,0.00,WUHU216HW,2013-05-09 01:30:00,
2013-05-08 21:35:00,59.4,55.9,29.61,North,0,0.0,0.0,88,0.00,,,0.00,WUHU216HW,2013-05-09 01:35:00,
2013-05-08 22:00:00,59.2,56.0,29.61,North,0,0.0,0.0,89,0.00,,,0.00,WUHU216HW,2013-05-09 02:00:00,
2013-05-08 22:05:00,59.2,56.0,29.61,North,0,0.0,0.0,89,0.00,,,0.00,WUHU216HW,2013-05-09 02:05:00,
2013-05-08 22:30:00,59.0,55.8,29.60,North,0,0.0,0.0,89,0.00,,,0.00,WUHU216HW,2013-05-09 02:30:00,
2013-05-08 22:35:00,59.0,55.8,29.60,North,0,0.0,0.0,89,0.00,,,0.00,WUHU216HW,2013-05-09 02:35:00,
2013-05-08 23:00:00,58.5,55.3,29.59,North,0,0.0,0.0,89,0.00,,,0.00,WUHU216HW,2013-05-09 03:00:00,
2013-05-08 23:05:00,58.5,55.3,29.59,North,0,0.0,0.0,89,0.00,,,0.00,WUHU216HW,2013-05-09 03:05:00,
2013-05-08 23:30:00,58.3,55.1,29.58,North,0,0.0,0.0,89,0.00,,,0.00,WUHU216HW,2013-05-09 03:30:00,
2013-05-08 23:35:00,58.3,55.1,29.58,North,0,0.0,0.0,89,0.00,,,0.00,WUHU216HW,2013-05-09 03:35:00,
2013-05-08 23:40:00,58.3,55.1,29.58,North,0,0.0,0.0,89,0.00,,,0.00,WUHU216HW,2013-05-09 03:40:00,
2013-05-08 23:59:00,58.1,54.6,29.58,North,0,0.0,0.0,88,0.00,,,0.00,WUHU216HW,2013-05-09 03:59:00,